TimeCST,TemperatureF,Dew PointF,Humidity,Sea Level PressureIn,VisibilityMPH,Wind Direction,Wind SpeedMPH,Gust SpeedMPH,PrecipitationIn,Events,Conditions,WindDirDegrees,DateUTC
12:53 AM,44.1,41.0,89,30.27,10.0,Calm,Calm,-,N/A,,Clear,0,2012-12-05 06:53:00
1:53 AM,43.0,39.0,86,30.28,10.0,North,3.5,-,N/A,,Clear,10,2012-12-05 07:53:00
2:53 AM,41.0,39.0,93,30.28,10.0,Calm,Calm,-,N/A,,Clear,0,2012-12-05 08:53:00
3:53 AM,39.0,37.0,93,30.29,2.0,Calm,Calm,-,N/A,,Clear,0,2012-12-05 09:53:00
4:06 AM,37.4,37.4,100,30.29,6.0,Calm,Calm,-,N/A,,Clear,0,2012-12-05 10:06:00
4:11 AM,39.2,37.4,93,30.29,1.8,Calm,Calm,-,N/A,,Clear,0,2012-12-05 10:11:00
4:21 AM,35.6,35.6,100,30.29,3.0,Calm,Calm,-,N/A,,Clear,0,2012-12-05 10:21:00
4:30 AM,37.4,35.6,93,30.30,1.8,Calm,Calm,-,N/A,,Clear,0,2012-12-05 10:30:00
4:40 AM,35.6,35.6,100,30.30,0.5,Calm,Calm,-,N/A,Fog,Fog,0,2012-12-05 10:40:00
4:46 AM,37.4,35.6,93,30.31,2.0,North,3.5,-,N/A,,Clear,10,2012-12-05 10:46:00
4:53 AM,37.0,36.0,96,30.31,8.0,North,3.5,-,N/A,,Clear,360,2012-12-05 10:53:00
5:53 AM,39.0,37.0,93,30.33,10.0,North,3.5,-,N/A,,Clear,10,2012-12-05 11:53:00
6:53 AM,37.9,37.0,97,30.34,9.0,Calm,Calm,-,N/A,,Clear,0,2012-12-05 12:53:00
8:53 AM,46.9,42.1,83,30.35,8.0,Calm,Calm,-,N/A,,Clear,0,2012-12-05 14:53:00
9:53 AM,51.1,43.0,74,30.34,10.0,ENE,6.9,-,N/A,,Clear,70,2012-12-05 15:53:00
10:53 AM,55.0,42.1,62,30.33,10.0,NE,5.8,-,N/A,,Clear,50,2012-12-05 16:53:00
11:53 AM,57.9,41.0,53,30.30,10.0,NE,8.1,-,N/A,,Clear,40,2012-12-05 17:53:00
12:53 PM,59.0,39.0,48,30.27,10.0,NE,6.9,-,N/A,,Clear,50,2012-12-05 18:53:00
1:53 PM,60.1,37.0,42,30.24,10.0,ENE,9.2,-,N/A,,Clear,60,2012-12-05 19:53:00
2:53 PM,59.0,34.0,39,30.24,10.0,NNE,13.8,17.3,N/A,,Clear,30,2012-12-05 20:53:00
3:53 PM,55.9,34.0,44,30.24,10.0,NE,9.2,-,N/A,,Clear,40,2012-12-05 21:53:00
4:53 PM,52.0,33.1,49,30.22,10.0,ENE,5.8,-,N/A,,Clear,70,2012-12-05 22:53:00
5:53 PM,50.0,33.8,54,30.21,10.0,ENE,4.6,-,N/A,,Clear,60,2012-12-05 23:53:00
6:53 PM,48.0,35.1,61,30.22,10.0,NE,4.6,-,N/A,,Clear,40,2012-12-06 00:53:00
7:53 PM,46.9,35.1,63,30.21,10.0,ENE,4.6,-,N/A,,Clear,60,2012-12-06 01:53:00
8:53 PM,45.0,35.1,68,30.19,10.0,Calm,Calm,-,N/A,,Clear,0,2012-12-06 02:53:00
9:53 PM,41.0,35.1,79,30.17,10.0,Calm,Calm,-,N/A,,Clear,0,2012-12-06 03:53:00
10:53 PM,41.0,35.1,79,30.16,10.0,ENE,3.5,-,N/A,,Clear,60,2012-12-06 04:53:00
11:53 PM,41.0,34.0,76,30.14,10.0,East,4.6,-,N/A,,Clear,100,2012-12-06 05:53:00